| time (UTC) | temp F | wind direction | speed knots | gust knots | rain 1hr in | rain 24hr in | rain mn in | humidity % | barometer mb |
| 20260505124538 | 66 | 156 | 2.6 | 8.7 | 0.00 | 0.00 | 0.00 | 55 | 1012.7 |
| 20260505123518 | 66 | 198 | 3.5 | 11.3 | 0.00 | 0.00 | 0.00 | 55 | 1012.6 |
| 20260505122540 | 65 | 221 | 3.5 | 7.8 | 0.00 | 0.00 | 0.00 | 55 | 1012.6 |
| 20260505121519 | 65 | 227 | 3.5 | 9.6 | 0.00 | 0.00 | 0.00 | 56 | 1012.5 |
| 20260505120519 | 65 | 192 | 3.5 | 8.7 | 0.00 | 0.00 | 0.00 | 56 | 1012.4 |
| 20260505115519 | 65 | 186 | 2.6 | 7.8 | 0.00 | 0.00 | 0.00 | 57 | 1012.4 |
| 20260505114520 | 64 | 199 | 2.6 | 7.0 | 0.00 | 0.00 | 0.00 | 57 | 1012.3 |
| 20260505113540 | 64 | 182 | 3.5 | 7.8 | 0.00 | 0.00 | 0.00 | 57 | 1012.2 |
| 20260505112539 | 64 | 183 | 4.3 | 8.7 | 0.00 | 0.00 | 0.00 | 58 | 1012.2 |
| 20260505111520 | 64 | 182 | 3.5 | 7.0 | 0.00 | 0.00 | 0.00 | 58 | 1012.1 |
| 20260505110517 | 64 | 185 | 2.6 | 7.0 | 0.00 | 0.00 | 0.00 | 58 | 1012.1 |
| 20260505101523 | 63 | 188 | 3.5 | 6.1 | 0.00 | 0.00 | 0.00 | 59 | 1011.6 |
| 20260505100537 | 63 | 184 | 3.5 | 7.0 | 0.00 | 0.00 | 0.00 | 59 | 1011.5 |
| 20260505095517 | 63 | 182 | 2.6 | 5.2 | 0.00 | 0.00 | 0.00 | 59 | 1011.5 |
| 20260505094517 | 63 | 182 | 3.5 | 7.8 | 0.00 | 0.00 | 0.00 | 58 | 1011.4 |
| 20260505093519 | 63 | 186 | 2.6 | 7.8 | 0.00 | 0.00 | 0.00 | 58 | 1011.3 |
| 20260505092518 | 63 | 175 | 4.3 | 7.0 | 0.00 | 0.00 | 0.00 | 58 | 1011.2 |
| 20260505091525 | 63 | 174 | 4.3 | 7.8 | 0.00 | 0.00 | 0.00 | 58 | 1011.2 |
| 20260505090518 | 63 | 178 | 2.6 | 6.1 | 0.00 | 0.00 | 0.00 | 58 | 1011.2 |
| 20260505085518 | 63 | 182 | 4.3 | 8.7 | 0.00 | 0.00 | 0.00 | 57 | 1011.2 |
| 20260505084518 | 64 | 187 | 3.5 | 10.4 | 0.00 | 0.00 | 0.00 | 56 | 1011.2 |
| 20260505083519 | 64 | 185 | 3.5 | 9.6 | 0.00 | 0.00 | 0.00 | 56 | 1011.2 |
| 20260505082518 | 64 | 179 | 4.3 | 8.7 | 0.00 | 0.00 | 0.00 | 56 | 1011.2 |
| 20260505081518 | 64 | 182 | 3.5 | 7.0 | 0.00 | 0.00 | 0.00 | 55 | 1011.2 |
| 20260505080519 | 64 | 181 | 5.2 | 9.6 | 0.00 | 0.00 | 0.00 | 55 | 1011.1 |
| 20260505075519 | 64 | 182 | 6.1 | 12.2 | 0.00 | 0.00 | 0.00 | 54 | 1011.1 |
| 20260505074519 | 64 | 182 | 5.2 | 10.4 | 0.00 | 0.00 | 0.00 | 54 | 1011.1 |
| 20260505073520 | 64 | 180 | 6.1 | 10.4 | 0.00 | 0.00 | 0.00 | 54 | 1011.1 |
| 20260505072540 | 64 | 180 | 5.2 | 10.4 | 0.00 | 0.00 | 0.00 | 55 | 1011.0 |
| 20260505071519 | 64 | 179 | 5.2 | 8.7 | 0.00 | 0.00 | 0.00 | 55 | 1011.0 |
| 20260505070519 | 65 | 180 | 4.3 | 9.6 | 0.00 | 0.00 | 0.00 | 54 | 1010.9 |
| 20260505065519 | 64 | 180 | 5.2 | 9.6 | 0.00 | 0.00 | 0.00 | 54 | 1010.9 |
| 20260505064539 | 64 | 178 | 5.2 | 8.7 | 0.00 | 0.00 | 0.00 | 55 | 1010.8 |
| 20260505063519 | 64 | 181 | 4.3 | 7.8 | 0.00 | 0.00 | 0.00 | 55 | 1010.9 |
| 20260505062520 | 65 | 183 | 3.5 | 5.2 | 0.00 | 0.00 | 0.00 | 55 | 1010.8 |
| 20260505061540 | 65 | 181 | 4.3 | 5.2 | 0.00 | 0.00 | 0.00 | 54 | 1010.9 |
| 20260505060530 | 65 | 183 | 1.7 | 4.3 | 0.00 | 0.00 | 0.00 | 54 | 1010.9 |
| 20260505055530 | 64 | 180 | 2.6 | 4.3 | 0.00 | 0.00 | 0.00 | 55 | 1010.9 |
| 20260505054550 | 65 | 178 | 2.6 | 4.3 | 0.00 | 0.00 | 0.00 | 55 | 1011.0 |
| 20260505053520 | 65 | 178 | 2.6 | 5.2 | 0.00 | 0.00 | 0.00 | 54 | 1011.0 |
| 20260505052520 | 66 | 177 | 2.6 | 5.2 | 0.00 | 0.00 | 0.00 | 53 | 1011.0 |
| 20260505051522 | 66 | 173 | 3.5 | 5.2 | 0.00 | 0.00 | 0.00 | 52 | 1011.1 |
| 20260505050521 | 66 | 173 | 2.6 | 6.1 | 0.00 | 0.00 | 0.00 | 51 | 1011.1 |
| 20260505041521 | 67 | 161 | 1.7 | 4.3 | 0.00 | 0.00 | 0.00 | 49 | 1011.0 |
| 20260505040521 | 68 | 163 | 1.7 | 5.2 | 0.00 | 0.00 | 0.00 | 48 | 1011.0 |
| 20260505035521 | 68 | 165 | 1.7 | 5.2 | 0.00 | 0.00 | 0.00 | 48 | 1010.9 |
| 20260505034521 | 68 | 169 | 2.6 | 6.1 | 0.00 | 0.00 | 0.00 | 47 | 1010.8 |
| 20260505033521 | 68 | 171 | 1.7 | 4.3 | 0.00 | 0.00 | 0.00 | 46 | 1010.8 |
| 20260505032519 | 69 | 170 | 2.6 | 4.3 | 0.00 | 0.00 | 0.00 | 46 | 1010.8 |
| 20260505031519 | 69 | 179 | 2.6 | 6.1 | 0.00 | 0.00 | 0.00 | 45 | 1010.8 |
| 20260505030559 | 70 | 183 | 3.5 | 6.1 | 0.00 | 0.00 | 0.00 | 44 | 1010.8 |
| 20260505025521 | 70 | 182 | 3.5 | 7.0 | 0.00 | 0.00 | 0.00 | 44 | 1010.8 |
| 20260505024520 | 70 | 179 | 3.5 | 7.8 | 0.00 | 0.00 | 0.00 | 43 | 1010.8 |
| 20260505023520 | 70 | 180 | 4.3 | 7.8 | 0.00 | 0.00 | 0.00 | 43 | 1010.8 |
| 20260505022517 | 70 | 179 | 4.3 | 8.7 | 0.00 | 0.00 | 0.00 | 43 | 1010.7 |
| 20260505021517 | 70 | 180 | 5.2 | 7.8 | 0.00 | 0.00 | 0.00 | 43 | 1010.6 |
| 20260505020520 | 71 | 180 | 5.2 | 9.6 | 0.00 | 0.00 | 0.00 | 42 | 1010.7 |
| 20260505015520 | 71 | 180 | 4.3 | 8.7 | 0.00 | 0.00 | 0.00 | 42 | 1010.6 |
| 20260505014521 | 71 | 173 | 6.1 | 11.3 | 0.00 | 0.00 | 0.00 | 41 | 1010.4 |
| 20260505013518 | 71 | 172 | 6.1 | 10.4 | 0.00 | 0.00 | 0.00 | 42 | 1010.4 |
| 20260505012519 | 71 | 172 | 6.1 | 9.6 | 0.00 | 0.00 | 0.00 | 42 | 1010.3 |
| 20260505011518 | 72 | 170 | 7.0 | 10.4 | 0.00 | 0.00 | 0.00 | 41 | 1010.2 |
| 20260505010518 | 72 | 168 | 7.0 | 9.6 | 0.00 | 0.00 | 0.00 | 40 | 1010.2 |
| 20260505005641 | 72 | 165 | 7.0 | 9.6 | 0.00 | 0.00 | 0.00 | 40 | 1010.1 |
| 20260505004518 | 73 | 166 | 6.1 | 9.6 | 0.00 | 0.00 | 0.00 | 39 | 1010.0 |
| 20260505003518 | 73 | 162 | 6.1 | 9.6 | 0.00 | 0.00 | 0.00 | 38 | 1009.9 |
| 20260505002519 | 73 | 163 | 5.2 | 8.7 | 0.00 | 0.00 | 0.00 | 38 | 1009.9 |
| 20260505001519 | 74 | 164 | 6.1 | 8.7 | 0.00 | 0.00 | 0.00 | 38 | 1009.9 |
| 20260505000519 | 74 | 167 | 5.2 | 9.6 | 0.00 | 0.00 | 0.00 | 38 | 1009.8 |
| 20260504235519 | 74 | 169 | 6.1 | 10.4 | 0.00 | 0.00 | 0.00 | 37 | 1009.8 |
| 20260504234519 | 74 | 168 | 7.0 | 11.3 | 0.00 | 0.00 | 0.00 | 36 | 1009.7 |
| 20260504233521 | 74 | 169 | 7.0 | 15.6 | 0.00 | 0.00 | 0.00 | 36 | 1009.7 |
| 20260504232521 | 75 | 170 | 7.0 | 12.2 | 0.00 | 0.00 | 0.00 | 35 | 1009.6 |
| 20260504231519 | 75 | 176 | 7.8 | 13.9 | 0.00 | 0.00 | 0.00 | 35 | 1009.5 |
| 20260504230521 | 75 | 172 | 7.0 | 13.0 | 0.00 | 0.00 | 0.00 | 35 | 1009.6 |
| 20260504225517 | 75 | 171 | 7.0 | 11.3 | 0.00 | 0.00 | 0.00 | 35 | 1009.6 |
| 20260504224517 | 75 | 170 | 7.0 | 13.9 | 0.00 | 0.00 | 0.00 | 35 | 1009.7 |
| 20260504223520 | 75 | 172 | 6.1 | 14.8 | 0.00 | 0.00 | 0.00 | 34 | 1009.7 |
| 20260504222541 | 75 | 173 | 10.4 | 19.1 | 0.00 | 0.00 | 0.00 | 34 | 1009.6 |
| 20260504221520 | 75 | 176 | 6.1 | 13.9 | 0.00 | 0.00 | 0.00 | 33 | 1009.6 |
| 20260504220537 | 75 | 181 | 7.8 | 16.5 | 0.00 | 0.00 | 0.00 | 33 | 1009.5 |
| 20260504215518 | 75 | 173 | 7.8 | 14.8 | 0.00 | 0.00 | 0.00 | 32 | 1009.4 |
| 20260504214517 | 75 | 172 | 9.6 | 14.8 | 0.00 | 0.00 | 0.00 | 32 | 1009.5 |
| 20260504213518 | 75 | 175 | 10.4 | 17.4 | 0.00 | 0.00 | 0.00 | 32 | 1009.5 |
| 20260504212521 | 75 | 171 | 6.1 | 13.9 | 0.00 | 0.00 | 0.00 | 32 | 1009.5 |
| 20260504211518 | 75 | 172 | 7.8 | 14.8 | 0.00 | 0.00 | 0.00 | 32 | 1009.5 |
| 20260504210538 | 75 | 174 | 10.4 | 20.0 | 0.00 | 0.00 | 0.00 | 32 | 1009.4 |
| 20260504205539 | 75 | 173 | 10.4 | 20.9 | 0.00 | 0.00 | 0.00 | 32 | 1009.5 |
| 20260504204518 | 74 | 173 | 7.0 | 13.9 | 0.00 | 0.00 | 0.00 | 32 | 1009.7 |
| 20260504203519 | 74 | 171 | 9.6 | 15.6 | 0.00 | 0.00 | 0.00 | 32 | 1009.6 |
| 20260504202519 | 74 | 172 | 10.4 | 20.0 | 0.00 | 0.00 | 0.00 | 32 | 1010.0 |
| 20260504201520 | 74 | 166 | 7.8 | 15.6 | 0.00 | 0.00 | 0.00 | 32 | 1010.0 |
| 20260504200519 | 73 | 166 | 9.6 | 15.6 | 0.00 | 0.00 | 0.00 | 33 | 1010.1 |
| 20260504195539 | 73 | 172 | 7.8 | 15.6 | 0.00 | 0.00 | 0.00 | 33 | 1010.3 |
| 20260504194519 | 73 | 164 | 8.7 | 15.6 | 0.00 | 0.00 | 0.00 | 33 | 1010.3 |
| 20260504193519 | 73 | 171 | 6.1 | 13.9 | 0.00 | 0.00 | 0.00 | 33 | 1010.6 |
| 20260504192519 | 72 | 192 | 6.1 | 11.3 | 0.00 | 0.00 | 0.00 | 33 | 1010.7 |
| 20260504191516 | 73 | 165 | 12.2 | 21.7 | 0.00 | 0.00 | 0.00 | 33 | 1010.9 |
| 20260504190520 | 73 | 167 | 9.6 | 13.9 | 0.00 | 0.00 | 0.00 | 33 | 1011.1 |
| 20260504185521 | 72 | 188 | 3.5 | 9.6 | 0.00 | 0.00 | 0.00 | 34 | 1011.3 |
| 20260504184520 | 71 | 157 | 8.7 | 12.2 | 0.00 | 0.01 | 0.00 | 35 | 1011.4 |
| 20260504183521 | 71 | 166 | 7.8 | 12.2 | 0.00 | 0.01 | 0.00 | 35 | 1011.6 |
| 20260504182519 | 71 | 170 | 10.4 | 16.5 | 0.00 | 0.01 | 0.00 | 35 | 1011.7 |
| 20260504181517 | 70 | 186 | 5.2 | 11.3 | 0.00 | 0.01 | 0.00 | 35 | 1011.9 |
| 20260504180518 | 70 | 179 | 7.8 | 13.9 | 0.00 | 0.01 | 0.00 | 35 | 1012.0 |
| 20260504175519 | 69 | 196 | 4.3 | 12.2 | 0.00 | 0.01 | 0.00 | 37 | 1012.2 |
| 20260504174518 | 69 | 175 | 8.7 | 12.2 | 0.00 | 0.01 | 0.00 | 37 | 1012.2 |
| 20260504173518 | 68 | 175 | 5.2 | 12.2 | 0.00 | 0.01 | 0.00 | 38 | 1012.3 |
| 20260504172518 | 68 | 175 | 7.8 | 17.4 | 0.00 | 0.01 | 0.00 | 38 | 1012.4 |
| 20260504171518 | 68 | 176 | 6.1 | 12.2 | 0.00 | 0.01 | 0.00 | 37 | 1012.6 |
| 20260504170518 | 68 | 184 | 3.5 | 10.4 | 0.00 | 0.01 | 0.00 | 36 | 1012.7 |
| 20260504150517 | 64 | 167 | 6.1 | 10.4 | 0.00 | 0.01 | 0.00 | 38 | 1013.8 |
| 20260504140518 | 58 | 172 | 4.3 | 7.8 | 0.00 | 0.01 | 0.00 | 50 | 1014.2 |